Volver al catálogo

ONEWEB-0612

ActivoComunicacionesPO
NORAD 54675·PAYLOAD·🇬🇧 United Kingdom

Lanzado Dec 8, 2022 desde Cape Canaveral Space Force Station

Loading…

Próximos Pases (próximas 24 horas)

TLE

ActualizadoSource: CelesTrak SupGP

Época: Sep 14, 2026, 23:28 UTC

1 54675C 22166AK  26257.97792083 -.00002495  00000+0 -60493-2 0  2573
2 54675  87.9284 226.1050 0002225  85.6075 307.0209 13.21831536    10

Sigue ONEWEB-0612 en tiempo real con AllMySat

Download on the App Store